Biloxi, MS

2:34 PM CDT on March 29, 2017 (GMT -0500)
Keesler Air Force Base

Weather History for KBIX - February, 2012

Change the Weather History Date:

Wednesday, February 8, 2012

  Actual Average Record
Temperature  
Mean Temperature 58 °F -  
Max Temperature 66 °F 60 °F 78 °F (1969)
Min Temperature 50 °F 40 °F 26 °F (1967)
Degree Days  
Heating Degree Days 7    
Growing Degree Days 8 (Base 50)    
Moisture  
Dew Point 41 °F    
Average Humidity 57    
Maximum Humidity 75    
Minimum Humidity 36    
Precipitation  
Precipitation 0.00 in - - ()
Sea Level Pressure  
Sea Level Pressure 30.24 in    
Wind  
Wind Speed 7 mph (NNE)    
Max Wind Speed 13 mph    
Max Gust Speed -    
Visibility 10 miles    
Events      
Averages and records for this station are not official NWS values.
T = Trace of Precipitation, MM = Missing Value Source: NWS Daily Summary

Daily Weather History Graph

Daily Weather History Graph

Search for Another Location

Airport or City:

Trip Planner

Search our weather history database for the weather conditions in past years. The results will help you decide how hot, cold, wet, or windy it might be!

Date:

Astronomy

Feb. 08, 2012 Rise Set
Actual Time 6:42 AM CST 5:37 PM CST
Civil Twilight 6:17 AM CST 6:02 PM CST
Nautical Twilight 5:48 AM CST 6:31 PM CST
Astronomical Twilight 5:20 AM CST 6:59 PM CST
Moon 6:47 PM CST (2/8) 6:52 AM CST (2/8)
Length of Visible Light 11h 45m
Length of Day
10h 55m
Full, 99% of the Moon is Illuminated
Feb 8
Full
Feb 14
Last Quarter
Feb 21
New
Feb 29
First Quarter
Mar 8
Full

Hourly Weather History & Observations

Time (CST) Temp. Dew Point Humidity Pressure Visibility Wind Dir Wind Speed Gust Speed Precip Events Conditions
12:55 AM 54.5 °F 45.0 °F 70% 30.20 in 10.0 mi NNE 5.8 mph - N/A   Clear
1:55 AM 54.5 °F 44.1 °F 68% 30.20 in 10.0 mi Variable 3.5 mph - N/A   Overcast
2:55 AM 54.3 °F 43.0 °F 66% 30.19 in 10.0 mi NNE 5.8 mph - N/A   Overcast
3:55 AM 53.8 °F 42.4 °F 65% 30.21 in 10.0 mi NNE 4.6 mph - N/A   Overcast
4:55 AM 52.9 °F 42.4 °F 68% 30.23 in 10.0 mi Calm Calm - N/A   Clear
5:55 AM 51.6 °F 42.8 °F 72% 30.23 in 10.0 mi Variable 4.6 mph - N/A   Clear
6:55 AM 50.5 °F 43.0 °F 75% 30.26 in 10.0 mi North 9.2 mph - N/A   Clear
7:55 AM 53.1 °F 43.2 °F 69% 30.29 in 10.0 mi North 9.2 mph - N/A   Clear
8:55 AM 56.7 °F 42.1 °F 58% 30.28 in 10.0 mi NNE 10.4 mph - N/A   Clear
9:55 AM 60.3 °F 41.9 °F 51% 30.28 in 10.0 mi North 12.7 mph - N/A   Clear
10:55 AM 62.4 °F 40.1 °F 44% 30.27 in 10.0 mi North 12.7 mph - N/A   Clear
11:55 AM 63.7 °F 39.4 °F 41% 30.25 in 10.0 mi North 12.7 mph - N/A   Clear
12:55 PM 64.9 °F 39.2 °F 39% 30.22 in 10.0 mi North 10.4 mph - N/A   Clear
1:55 PM 66.6 °F 39.6 °F 37% 30.20 in 10.0 mi North 9.2 mph - N/A   Clear
2:55 PM 66.6 °F 38.7 °F 36% 30.20 in 10.0 mi North 12.7 mph - N/A   Clear
3:55 PM 65.7 °F 39.9 °F 39% 30.20 in 10.0 mi North 5.8 mph - N/A   Clear
4:55 PM 63.1 °F 40.6 °F 44% 30.21 in 10.0 mi North 12.7 mph - N/A   Clear
5:55 PM 59.9 °F 40.6 °F 49% 30.22 in 10.0 mi North 8.1 mph - N/A   Clear
6:55 PM 57.6 °F 40.6 °F 53% 30.23 in 10.0 mi North 6.9 mph - N/A   Clear
7:55 PM 55.0 °F 41.5 °F 60% 30.24 in 10.0 mi North 4.6 mph - N/A   Clear
8:55 PM 53.4 °F 41.0 °F 63% 30.26 in 10.0 mi North 10.4 mph - N/A   Clear
9:55 PM 52.2 °F 40.5 °F 64% 30.27 in 10.0 mi North 6.9 mph - N/A   Clear
10:55 PM 50.9 °F 40.3 °F 67% 30.27 in 10.0 mi NNE 8.1 mph - N/A   Clear
11:55 PM 50.9 °F 39.6 °F 65% 30.27 in 10.0 mi NNE 8.1 mph - N/A   Clear